Location: Joplin, MO
(37.0842°N, 94.5133°W)
Time: 17:56:55
(UTC+02:00)

Vanguard 3 - All Passes

Search period start: 31 March 2023 00:00
Search period end: 10 April 2023 00:00
Orbit: 508 x 3249 km, 33.4° (Epoch: 31 March)

Date Brightness Start Highest point End Pass type
(mag) Time Alt. Az. Time Alt. Az. Time Alt. Az.
31 Mar - 07:06:17 10° S 07:17:06 29° SE 07:31:34 10° E visible
31 Mar - 09:15:23 10° SW 09:30:43 61° SSE 09:50:07 10° E visible
31 Mar - 11:28:37 10° WSW 11:47:20 79° S 12:05:57 10° E visible
31 Mar - 13:44:25 10° W 14:04:17 70° SSW 14:19:34 10° ESE daylight
31 Mar - 16:02:15 10° W 16:18:35 39° SW 16:29:56 10° SSE daylight
01 Apr - 05:54:42 10° SSE 06:00:56 15° SE 06:08:27 10° E visible
01 Apr - 07:59:53 10° SSW 08:12:46 46° SE 08:30:39 10° E visible
01 Apr - 10:11:16 10° WSW 10:28:00 74° SSE 10:47:43 10° E visible
01 Apr - 12:25:44 10° W 12:45:12 77° S 13:02:45 10° ESE visible
01 Apr - 14:42:17 10° W 15:01:10 55° SSW 15:15:02 10° SE daylight
01 Apr - 17:02:09 10° W 17:13:48 22° SW 17:22:40 10° S daylight
02 Apr - 06:45:39 10° S 06:55:49 30° SE 07:10:07 10° E visible
02 Apr - 08:54:50 10° SW 09:09:14 63° SSE 09:28:45 10° E visible
02 Apr - 11:07:48 10° W 11:25:45 79° S 11:45:02 10° E visible
02 Apr - 13:23:08 10° W 13:42:45 68° SSW 13:59:01 10° ESE visible
02 Apr - 15:40:44 10° W 15:57:14 37° SW 16:09:23 10° SSE daylight
03 Apr - 05:33:43 10° SSE 05:39:49 16° SE 05:47:27 10° E night (unlit)
03 Apr - 07:39:26 10° SW 07:51:24 48° SSE 08:09:04 10° E visible
03 Apr - 09:50:41 10° WSW 10:06:28 75° SSE 10:26:28 10° E visible
03 Apr - 12:04:45 10° W 12:23:35 76° S 12:41:57 10° ESE visible
03 Apr - 14:20:51 10° W 14:39:39 53° SSW 14:54:25 10° SE daylight
03 Apr - 16:40:53 10° W 16:52:32 21° SW 17:01:46 10° S daylight
04 Apr - 06:25:10 10° SSW 06:34:38 32° SE 06:48:32 10° E visible
04 Apr - 08:34:25 10° SW 08:47:49 65° SSE 09:07:12 10° E visible
04 Apr - 10:47:06 10° W 11:04:09 79° S 11:23:55 10° E visible
04 Apr - 13:01:57 10° W 13:21:06 66° SSW 13:38:14 10° SE visible
04 Apr - 15:19:16 10° W 15:35:44 35° SW 15:48:36 10° SSE daylight
05 Apr - 05:12:56 10° SSE 05:18:47 16° SE 05:26:18 10° E night (unlit)
05 Apr - 07:19:04 10° SW 07:30:08 50° SSE 07:47:21 10° E visible
05 Apr - 09:30:12 10° WSW 09:44:58 76° S 10:05:03 10° E visible
05 Apr - 11:43:50 10° W 12:01:55 75° SSW 12:20:55 10° ESE visible
05 Apr - 13:59:31 10° W 14:17:59 50° SSW 14:33:34 10° SE daylight
05 Apr - 16:19:44 10° W 16:31:06 20° SW 16:40:34 10° S daylight
06 Apr - 06:04:46 10° SSW 06:13:31 33° SE 06:26:52 10° E visible
06 Apr - 08:14:05 10° WSW 08:26:29 67° SSE 08:45:30 10° E visible
06 Apr - 10:26:28 10° W 10:42:34 79° S 11:02:36 10° E visible
06 Apr - 12:40:51 10° W 12:59:21 63° SSW 13:17:13 10° SE visible
06 Apr - 14:57:56 10° W 15:14:06 33° SW 15:27:33 10° SSE daylight
07 Apr - 04:52:19 10° SSE 04:57:49 17° SE 05:05:03 10° E night (unlit)
07 Apr - 06:58:48 10° SW 07:08:58 52° SSE 07:25:31 10° E visible
07 Apr - 09:09:48 10° WSW 09:23:32 77° S 09:43:26 10° E visible
07 Apr - 11:23:02 10° W 11:40:13 73° SSW 11:59:42 10° ESE visible
07 Apr - 13:38:16 10° W 13:56:13 48° SSW 14:12:29 10° SE daylight
07 Apr - 15:58:46 10° W 16:09:34 18° SW 16:19:01 10° SSW daylight
08 Apr - 05:44:29 10° SSW 05:52:30 34° SE 06:05:08 10° E visible
08 Apr - 07:53:50 10° WSW 08:05:15 68° SSE 08:23:41 10° E visible
08 Apr - 10:05:56 10° W 10:20:59 78° S 10:41:06 10° ESE visible
08 Apr - 12:19:51 10° W 12:37:34 61° SSW 12:55:59 10° SE visible
08 Apr - 14:36:43 10° W 14:52:23 31° SW 15:06:15 10° SSE daylight
09 Apr - 04:31:49 10° SSE 04:36:55 17° SE 04:43:44 10° E visible
09 Apr - 06:38:36 10° SW 06:47:54 53° SSE 07:03:38 10° E visible
09 Apr - 08:49:28 10° WSW 09:02:11 77° S 09:21:40 10° E visible
09 Apr - 11:02:19 10° W 11:18:29 71° SSW 11:38:14 10° ESE visible
09 Apr - 13:17:10 10° W 13:34:22 45° SW 13:51:07 10° SSE visible
09 Apr - 15:38:04 10° W 15:47:59 16° SW 15:57:02 10° SSW daylight
